Flag for Germany Weather past 2 weeks in Crailsheim, Baden-Württemberg, Germany

Now
77 °F

Partly sunny.


Feels Like: 79 °F
Forecast: 59 / 85 °F
Wind: 18 mph from West

Location: Niederstetten

Current Time: Aug 4, 2015 at 4:24:57 PM

Latest Report: Aug 4, 2015 at 3:20 PM


Visibility: N/A

Pressure: 30.01 "Hg

Humidity: 47%

Dew point: 55 °F

Location of CrailsheimLocation

Historic Weather in Crailsheim — Graph

°F

Crailsheim temperature yesterday

Maximum temperature yesterday: 86 °F (at 3:20 PM)
Minimum temperature yesterday: 59 °F (at 4:20 AM)
Average temperature yesterday: 74 °F

Past Weeks' High & Low Weather Summary

 TemperatureHumidityPressure
High93 °F (Jul 22, 4:20 PM)94% (Jul 23, 6:20 AM)30.12 "Hg (Jul 23, 6:20 AM)
Low45 °F (Jul 31, 6:20 AM)25% (Aug 2, 4:20 PM)29.71 "Hg (Jul 25, 12:20 AM)
Average67 °F57%29.96 "Hg
* Reported Jul 20 3:20 PM — Aug 4 3:20 PM, Crailsheim, Weather by CustomWeather, © 2015

Note: Actual official high and low records may vary slightly from our data, if they occured in-between our weather recording intervals... More about our weather records

Advertising

Crailsheim weather history for previous 24 hours

 ConditionsComfort  
Time TempWeatherWind HumidityBarometerVisibility
3:20 PM
Tue, Aug 4
77 °FPartly sunny.18 mph47%30.01 "HgN/A
2:20 PM81 °FBroken clouds.16 mph45%29.98 "HgN/A
1:20 PM82 °FPartly sunny.18 mph37%29.98 "HgN/A
12:20 PM82 °FPartly sunny.20 mph37%29.95 "HgN/A
11:20 AM86 °FPartly sunny.12 mph35%29.95 "HgN/A
10:20 AM82 °FPartly sunny.10 mph37%29.95 "HgN/A
9:20 AM79 °FScattered clouds.10 mph42%29.95 "HgN/A
8:20 AM75 °FScattered clouds.8 mph50%29.95 "HgN/A
7:20 AM70 °FPassing clouds.7 mph60%29.98 "HgN/A
6:20 AM66 °FPassing clouds.7 mph64%29.98 "HgN/A
5:20 AM64 °FPassing clouds.8 mph68%29.98 "HgN/A
4:20 AM68 °FPassing clouds.8 mph60%29.98 "HgN/A
3:20 AM70 °FMild.9 mph57%30.01 "HgN/A
2:20 AM72 °FMild.9 mph53%30.01 "HgN/A
1:20 AM72 °FPassing clouds.8 mph50%30.01 "HgN/A
12:20 AM72 °FPassing clouds.7 mph47%30.01 "HgN/A
11:20 PM
Mon, Aug 3
73 °FPassing clouds.5 mph41%30.04 "HgN/A
10:20 PM75 °FPassing clouds.5 mph39%30.04 "HgN/A
9:20 PM77 °FPassing clouds.3 mph36%30.04 "HgN/A
8:20 PM82 °FPassing clouds.6 mph30%30.01 "HgN/A
7:20 PM86 °FPassing clouds.2 mph27%30.01 "HgN/A
6:20 PM86 °FPassing clouds.6 mph25%30.04 "HgN/A
5:20 PM86 °FPassing clouds.3 mph27%30.04 "HgN/A
4:20 PM86 °FPassing clouds.7 mph25%30.07 "HgN/A
Weather by CustomWeather, © 2015

See weather overviewHow to use our weather pages